GW2584 Weather Reports


time (UTC)temp
C
wind
direction
speed
KPH
gust
KPH
rain 1hr
cm
rain 24hr
cm
rain mn
cm
humidity
%
barometer
mb
20260503200059 17 205 3.2 16.1 0.00 0.00 0.00 17 1016.5
20260503194556 17 45 4.8 19.3 0.00 0.00 0.00 17 1016.5
20260503193110 17 209 4.8 17.7 0.00 0.00 0.00 17 1016.7
20260503191554 18 154 4.8 17.7 0.00 0.00 0.00 16 1016.7
20260503190108 17 234 3.2 12.9 0.00 0.00 0.00 16 1017.1
20260503184601 17 25 3.2 9.7 0.00 0.00 0.00 17 1017.3
20260503183110 17 3 3.2 12.9 0.00 0.00 0.00 17 1017.7
20260503181554 17 210 1.6 9.7 0.00 0.00 0.00 18 1018.0
20260503180100 17 72 1.6 9.7 0.00 0.00 0.00 19 1018.1
20260503174557 16 23 1.6 12.9 0.00 0.00 0.00 19 1018.3
20260503173115 15 259 3.2 8.0 0.00 0.00 0.00 20 1018.5
20260503171555 15 216 1.6 8.0 0.00 0.00 0.00 21 1018.8
20260503160111 14 178 3.2 20.9 0.00 0.00 0.00 23 1019.2
20260503150111 12 237 4.8 16.1 0.00 0.00 0.00 27 1019.3
20260503140119 11 210 4.8 16.1 0.00 0.00 0.00 28 1019.7
20260503110110 11 238 8.0 17.7 0.00 0.00 0.00 26 1018.7
20260503100107 10 0 3.2 11.3 0.00 0.00 0.00 29 1019.0
20260503081615 10 221 3.2 14.5 0.00 0.00 0.00 30 1019.7
20260503071607 10 221 3.2 14.5 0.00 0.00 0.00 28 1020.1
20260503060103 9 278 3.2 8.0 0.00 0.00 0.00 23 1020.3
20260503054556 9 205 1.6 9.7 0.00 0.00 0.00 22 1020.3
20260503053058 10 222 4.8 14.5 0.00 0.00 0.00 19 1020.3
20260503051559 10 228 3.2 9.7 0.00 0.00 0.00 20 1020.2
20260503050057 11 233 3.2 9.7 0.00 0.00 0.00 17 1020.3
20260503044554 11 241 0.0 6.4 0.00 0.00 0.00 17 1020.3
20260503043057 11 238 3.2 9.7 0.00 0.00 0.00 18 1020.4
20260503041556 10 229 1.6 8.0 0.00 0.00 0.00 18 1020.6
20260503040055 11 244 1.6 8.0 0.00 0.00 0.00 18 1020.5
20260503034556 11 0 0.0 1.6 0.00 0.00 0.00 18 1020.4
20260503033127 11 233 1.6 8.0 0.00 0.00 0.00 18 1020.4
20260503031554 11 222 0.0 6.4 0.00 0.00 0.00 17 1020.4
20260503030055 11 0 0.0 1.6 0.00 0.00 0.00 16 1020.4
20260503024602 11 0 0.0 1.6 0.00 0.00 0.00 15 1020.4
20260503023057 11 0 0.0 1.6 0.00 0.00 0.00 16 1020.3
20260503021600 12 0 0.0 1.6 0.00 0.00 0.00 15 1020.2
20260503020059 12 223 0.0 1.6 0.00 0.00 0.00 14 1020.1
20260503014623 13 0 0.0 3.2 0.00 0.00 0.00 13 1019.9
20260503013054 14 183 0.0 9.7 0.00 0.00 0.00 13 1019.9
20260503011616 14 69 3.2 6.4 0.00 0.00 0.00 14 1019.8
20260503010058 15 0 0.0 1.6 0.00 0.00 0.00 14 1019.6
20260503004604 15 0 0.0 8.0 0.00 0.00 0.00 14 1019.6
20260503003110 15 139 4.8 16.1 0.00 0.00 0.00 14 1019.7
20260503001604 15 58 11.3 17.7 0.00 0.00 0.00 14 1019.6
20260503000059 16 108 1.6 12.9 0.00 0.00 0.00 14 1019.8
20260502234559 16 20 4.8 12.9 0.00 0.00 0.00 14 1019.7
20260502233056 16 34 4.8 12.9 0.00 0.00 0.00 14 1019.8
20260502231558 16 86 6.4 19.3 0.00 0.00 0.00 14 1019.9
20260502230100 16 181 11.3 19.3 0.00 0.00 0.00 15 1020.0
20260502224609 16 182 6.4 19.3 0.00 0.00 0.00 15 1019.9
20260502223058 17 47 4.8 19.3 0.00 0.00 0.00 15 1020.0
20260502221558 17 75 6.4 16.1 0.00 0.00 0.00 16 1020.2
20260502220059 17 0 4.8 14.5 0.00 0.00 0.00 16 1020.1
20260502214558 16 108 6.4 22.5 0.00 0.00 0.00 17 1020.3
20260502213123 17 38 8.0 20.9 0.00 0.00 0.00 17 1020.7
20260502211632 17 33 6.4 17.7 0.00 0.00 0.00 16 1020.8
20260502210105 17 30 8.0 19.3 0.00 0.00 0.00 16 1021.0
20260502204557 17 71 9.7 20.9 0.00 0.00 0.00 17 1021.1
20260502203101 17 17 8.0 17.7 0.00 0.00 0.00 17 1021.0
20260502201559 17 73 6.4 16.1 0.00 0.00 0.00 18 1021.2